Location: Krakow
(50.0830°N, 19.9170°E)
Time: 17:31:19
(UTC+01:00)

Transit 2A - Pass Details

Date: 16 February 2023
Orbit: 591 x 964 km, 66.7° (Epoch: 21 March)

Event Time Altitude Azimuth Distance (km) Brightness Sun altitude
Rises 13:20:49 0° 193° (SSW) 3,038 10.4 24.8°
Reaches altitude 10° 13:23:06 10° 187° (S) 2,179 9.9 24.6°
Maximum altitude 13:27:49 44° 116° (ESE) 1,046 7.0 24.3°
Drops below altitude 10° 13:33:04 10° 46° (NE) 2,433 8.1 24.0°
Sets 13:35:45 0° 40° (NE) 3,433 8.8 23.8°
